[Iaude] MPEC S133: 2019 SO5 [a=2.30,e=0.49,i=9.1,H=23.4]

mpec at marsden.cfa.harvard.edu mpec at marsden.cfa.harvard.edu
Sat Sep 28 12:07:36 EDT 2019


M.P.E.C. 2019-S133                           Issued 2019 September 28, 16:06 UT

     The Minor Planet Electronic Circulars contain information on unusual
         minor planets and routine data on comets.  They are published
    on behalf of Division F of the International Astronomical Union by the
          Minor Planet Center, Smithsonian Astrophysical Observatory,
                          Cambridge, MA 02138, U.S.A.

             Prepared using the Tamkin Foundation Computer Network

                              MPC at CFA.HARVARD.EDU
            URL https://www.minorplanetcenter.net/    ISSN 1523-6714

                                    2019 SO5                                    


Observations:
     K19S05O* C2019 09 26.54274 03 04 12.107+02 39 02.35         21.8 wUES133F51
     K19S05O  C2019 09 26.55583 03 04 13.122+02 39 41.22         22.1 wUES133F51
     K19S05O  C2019 09 26.56886 03 04 14.153+02 40 20.58         22.7 wUES133F51
     K19S05O  C2019 09 26.58182 03 04 15.175+02 40 59.47         22.3 wUES133F51
     K19S05O KC2019 09 27.32317703 05 24.30 +03 17 57.3          22.3 VuES133H21
     K19S05O KC2019 09 27.32926303 05 24.78 +03 18 15.8          22.1 VuES133H21
     K19S05O  C2019 09 27.57606303 05 46.221+03 30 50.58         21.7 GVES133F51
     K19S05O  C2019 09 27.60218503 05 48.181+03 32 09.48         22.1 GVES133F51
     K19S05O  C2019 09 27.61517703 05 49.142+03 32 48.20         21.6 GVES133F51
     K19S05O  C2019 09 28.45207503 07 02.91 +04 14 49.8          21.8 GVES133H01
     K19S05O  C2019 09 28.45598803 07 03.19 +04 15 01.6          21.5 GVES133H01
     K19S05O  C2019 09 28.46618503 07 03.94 +04 15 32.3          21.4 GVES133H01
     K19S05O  C2019 09 28.47481203 07 04.57 +04 15 58.3          21.1 GVES133H01

Observer details:
F51 Pan-STARRS 1, Haleakala.  Observers J. Bulger, T. Lowe, A. Schultz, M. 
   Willman, K. Chambers, E. Magnier.  Measurers K. Chambers, S. Chastel, T. de 
   Boer, L. Denneau, J. Fairlamb, H. Flewelling, M. Huber, C.-C. Lin, E. 
   Magnier, Y. Ramanjooloo, R. Wainscoat, R. Weryk.  1.8-m Ritchey-Chretien + 
   CCD.
H01 Magdalena Ridge Observatory, Socorro.  Observers W. H. Ryan, E. V. Ryan.  
    Measurer W. H. Ryan.  2.4-m f/8.9 Ritchey-Chretien + CCD.
H21 Astronomical Research Observatory, Westfield.  Observer R. Holmes.  
    Measurers S. Foglia, L. Buzzi, T. Linder, R. Holmes.  1.3-m f/4.0 
   astrograph + CCD.

Orbital elements:
2019 SO5                                                 Earth MOID = 0.1887 AU
Epoch 2019 Apr. 27.0 TT = JDT 2458600.5                 Bell
M 317.88771              (2000.0)            P               Q
n   0.28168244     Peri.  339.50060     +0.99032545     -0.11798944
a   2.3047803      Node    27.58878     +0.13876420     +0.84218012
e   0.4872890      Incl.    9.07340     -0.00003137     +0.52612843
P   3.50           H   23.4           G   0.15           U   8
Residuals in seconds of arc
190926 F51  0.2+  0.1+    190927 H21  0.1-  0.1+    190928 H01  0.0   0.0
190926 F51  0.1-  0.3-    190927 F51  0.1+  0.0     190928 H01  0.1+  0.1-
190926 F51  0.0   0.0     190927 F51  0.1+  0.2+    190928 H01  0.0   0.1-
190926 F51  0.0   0.1+    190927 F51  0.2-  0.2-
190927 H21  0.2-  0.0     190928 H01  0.1+  0.1+

Ephemeris:
2019 SO5                 a,e,i = 2.30, 0.49, 9                   q = 1.1817
Date    TT    R. A. (2000) Decl.     Delta      r    Elong.  Phase     V
2019 08 29    01 57 46.3 -16 53 08   0.2929  1.2145   128.5    40.6    22.8
...
2019 09 13    02 37 25.9 -07 53 35   0.2513  1.1873   131.3    39.6    22.3
...
2019 09 21    02 54 32.6 -01 52 08   0.2378  1.1819   134.0    37.6    22.2
...
2019 09 27    03 04 54.3 +03 02 05   0.2317  1.1822   136.8    35.5    22.0
2019 09 28    03 06 24.1 +03 52 19   0.2310  1.1826   137.4    35.0    22.0
2019 09 29    03 07 49.8 +04 42 46   0.2305  1.1832   137.9    34.6    22.0
...
2019 10 05    03 14 56.4 +09 47 08   0.2293  1.1884   141.5    31.6    21.9
...
2019 10 13    03 20 30.1 +16 21 33   0.2339  1.2009   147.0    26.9    21.9
...
2019 10 28    03 19 46.0 +26 39 11   0.2617  1.2404   158.1    17.4    21.9

A. U. Tomatic                (C) Copyright 2019 MPC           M.P.E.C. 2019-S133




More information about the Iaude mailing list